[[{"header":{"parameterUnit":"m.s-1","parameterCategory":1,"la1":30.2991,"la2":30.254,"lo1":-89.0895,"lo2":-89.0444,"dy":0.0017,"dx":0.0017,"nx":28,"ny":28,"refTime":"2024-03-28T09:00:00:Z","depth":0,"parameterNumber":2,"parameterNumberName":"U-component_of_WINDS"},"data":[0,0,0,0,0,0,0,0,0,0,0,0,0,0,0,0,0,0,0,0,0,0,0,0,0,0,0,0,0,0,0,0,0,0,0,0,0,0,0,0,0,0,0,0,0,0,0,0,0,0,0,0,0,0,0,0,0,0,-3.292,-3.292,0,-3.2876,-3.2876,-3.2875,-3.2693,-3.2689,-3.2685,-3.2681,-3.2642,-3.2645,-3.2648,0,0,0,0,0,0,0,0,0,0,0,0,0,-3.2852,-3.2854,-3.292,-3.292,-3.2919,-3.2876,-3.2876,-3.2875,-3.2694,-3.2689,-3.2684,-3.2679,-3.2641,-3.2645,-3.2648,0,0,0,0,0,0,0,0,0,0,0,0,0,-3.2853,-3.2855,-3.2921,-3.2824,-3.2814,-3.2877,-3.2876,-3.2875,-3.2695,-3.2689,-3.2682,-3.2677,-3.264,-3.2644,-3.2648,-3.2802,0,0,-3.2662,-3.2664,0,0,0,0,0,0,0,0,-3.2853,-3.2855,-3.2838,-3.283,-3.282,-3.2784,-3.2837,-3.2851,-3.2697,-3.2741,-3.2681,-3.2673,-3.2695,-3.2694,-3.27,-3.2801,-3.2799,-3.2662,-3.2665,-3.2667,-3.2668,0,0,0,0,0,0,0,-3.2853,-3.2856,-3.2903,-3.2838,-3.2827,-3.2784,-3.2777,-3.2839,-3.2754,-3.2736,-3.2723,-3.272,-3.2689,-3.2696,-3.2698,-3.2798,-3.2662,-3.2666,-3.2669,-3.267,-3.3022,-3.3028,0,0,0,0,0,0,-3.2866,-3.2858,-3.2904,-3.2902,-3.2821,-3.279,-3.2782,-3.2802,-3.2753,-3.2739,-3.2725,-3.2712,-3.2692,-3.2693,-3.2696,-3.2872,-3.2667,-3.2671,-3.2673,-3.3015,-3.3023,-3.3031,0,0,0,0,0,0,-3.2865,-3.2872,-3.2906,-3.2876,-3.2877,-3.2798,-3.2822,-3.2804,-3.2812,-3.2744,-3.2729,-3.2749,-3.2687,-3.269,-3.2776,-3.2868,-3.2673,-3.2677,-3.3007,-3.3018,-3.3027,-3.3227,0,0,0,0,0,0,-3.2864,-3.2873,-3.293,-3.2878,-3.2879,-3.2987,-3.2827,-3.2808,-3.2819,-3.2801,-3.2762,-3.275,-3.2682,-3.2771,-3.2781,-3.2871,-3.268,-3.2999,-3.3012,-3.3024,-3.3212,-3.3243,-3.3269,0,0,0,0,0,-3.2862,-3.2989,-3.2933,-3.294,-3.2948,-3.2993,-3.2993,-3.2911,-3.2827,-3.2884,-3.2841,-3.2751,-3.2856,-3.2781,-3.2791,-3.2884,-3.2993,-3.3008,-3.3023,-3.3199,-3.3237,-3.3268,0,0,0,0,0,0,-3.3056,-3.2981,-3.2918,-3.3032,-3.302,-3.2962,-3.3031,-3.2954,-3.2967,-3.295,-3.2849,-3.2842,-3.2944,-3.2922,-3.284,-3.3029,-3.2909,-3.2927,-3.304,-3.3075,-3.3103,-3.3107,-3.2684,0,0,0,0,0,-3.3112,-3.3152,-3.3085,-3.3192,-3.3189,-3.3112,-3.3128,-3.3065,-3.305,-3.3044,-3.3007,-3.2997,-3.3027,-3.305,-3.3074,-3.3207,-3.3196,-3.3276,-3.3304,-3.3328,-3.3345,-3.3413,-3.3448,-3.308,-3.308,-3.308,0,0,-3.3228,-3.3192,-3.3224,-3.323,-3.3213,-3.3259,-3.3109,-3.3164,-3.3197,-3.3053,-3.3132,-3.3105,-3.3087,-3.3197,-3.3244,-3.3183,-3.3444,-3.3347,-3.3367,-3.3371,-3.3432,-3.3467,-3.3498,-3.309,-3.3089,-3.3087,0,0,-3.3463,-3.344,-3.3525,-3.3511,-3.3486,-3.3433,-3.3454,-3.3408,-3.3383,-3.346,-3.3353,-3.3392,-3.3447,-3.3438,-3.3441,-3.367,-3.3588,-3.3681,-3.3831,-3.3899,-3.3928,-3.3953,-3.4035,-3.4066,-3.3698,-3.3698,-3.3699,0,-3.3611,-3.3674,-3.358,-3.3641,-3.3647,-3.3516,-3.3603,-3.3594,-3.3581,-3.3588,-3.3518,-3.3583,-3.3562,-3.3668,-3.3724,-3.3731,-3.3752,-3.3686,-3.3931,-3.3955,-3.3977,-3.4055,-3.4086,-3.371,-3.3709,-3.3707,-3.3706,0,-3.3857,-3.3902,-3.3975,-3.3961,-3.3975,-3.405,-3.3969,-3.3994,-3.393,-3.3886,-3.3966,-3.3935,-3.3951,-3.3971,-3.391,-3.4069,-3.4031,-3.3948,-3.3826,-3.4025,-3.4096,-3.4125,-3.3726,-3.3722,-3.3719,-3.3716,0,0,-3.4216,-3.4147,-3.4175,-3.4167,-3.4129,-3.4163,-3.4231,-3.4244,-3.4268,-3.4262,-3.4318,-3.4366,-3.4288,-3.4291,-3.4228,-3.4288,-3.4471,-3.4196,-3.4194,-3.4249,-3.4645,-3.4709,-3.4744,-3.4416,-3.4421,-3.4426,-3.4646,0,-3.4439,-3.4549,-3.4466,-3.4592,-3.4633,-3.4508,-3.4567,-3.4552,-3.4511,-3.4541,-3.4497,-3.4533,-3.4427,-3.4428,-3.4481,-3.4438,-3.455,-3.4421,-3.4468,-3.4471,-3.4478,-3.4781,-3.4849,-3.5059,-3.4674,-3.4678,-3.4682,0,-3.4716,-3.4719,-3.4849,-3.48,-3.4814,-3.4869,-3.4873,-3.4903,-3.4882,-3.4849,-3.4852,-3.4772,-3.4837,-3.4716,-3.4804,-3.4718,-3.4733,-3.4715,-3.4721,-3.4723,-3.4589,-3.4792,-3.5124,-3.5156,-3.4724,-3.4721,-3.4718,0,-3.4964,-3.5002,-3.5083,-3.508,-3.5026,-3.5067,-3.5047,-3.502,-3.5032,-3.5037,-3.5044,-3.5057,-3.5065,-3.5077,-3.5004,-3.4922,-3.5103,-3.4975,-3.5078,-3.508,-3.5122,-3.5121,-3.5462,-3.5131,-3.5131,-3.513,-3.5129,0,-3.5224,-3.5308,-3.5193,-3.5244,-3.5335,-3.5238,-3.5331,-3.5298,-3.5275,-3.5318,-3.5212,-3.5255,-3.5155,-3.5188,-3.5131,-3.5213,-3.5218,-3.5193,-3.5178,-3.5203,-3.5207,-3.5212,-3.5196,-3.5138,-3.5137,-3.5135,-3.5133,0,-3.5517,-3.5444,-3.5524,-3.5465,-3.5453,-3.5522,-3.5472,-3.5517,-3.5469,-3.5525,-3.5532,-3.5458,-3.5491,-3.5418,-3.5443,-3.5404,-3.5521,-3.5482,-3.5527,-3.5516,-3.5623,-3.5614,-3.598,-3.6023,-3.5665,-3.5668,-3.5671,0,-3.5688,-3.5749,-3.5696,-3.5715,-3.57,-3.5734,-3.5744,-3.5652,-3.5669,-3.5649,-3.5697,-3.5721,-3.5735,-3.5795,-3.5744,-3.5762,-3.5722,-3.5849,-3.5725,-3.5748,-3.5725,-3.5722,-3.5728,-3.5876,-3.588,-3.5883,-3.5886,0,-3.5999,-3.5959,-3.5977,-3.5984,-3.5999,-3.6001,-3.5994,-3.6017,-3.5919,-3.5943,-3.5974,-3.5985,-3.6008,-3.6033,-3.6039,-3.602,-3.5939,-3.5926,-3.595,-3.5978,-3.6002,-3.599,-3.5598,-3.5918,-3.5915,-3.5912,-3.5911,-3.5909,-3.6236,-3.6284,-3.6253,-3.6277,-3.6262,-3.6259,-3.6297,-3.6252,-3.6276,-3.6285,-3.623,-3.6274,-3.6251,-3.6249,-3.6239,-3.6273,-3.6216,-3.6252,-3.6261,-3.6272,-3.6289,-3.5996,-3.6274,-3.6273,-3.6272,-3.6271,-3.627,0,-3.6541,-3.6514,-3.6537,-3.653,-3.655,-3.6467,-3.6456,-3.6478,-3.6517,-3.6501,-3.6516,-3.6553,-3.6576,-3.6527,-3.6543,-3.658,-3.6543,-3.6587,-3.6584,-3.6581,-3.6339,-3.6316,-3.6617,-3.6617,-3.6617,-3.6617,-3.6617,-3.6617,-3.6703,-3.6779,-3.6735,-3.6803,-3.6776,-3.6816,-3.6816,-3.6813,-3.6799,-3.6843,-3.6861,-3.6827,-3.6799,-3.6811,-3.683,-3.6815,-3.6826,-3.6885,-3.6857,-3.6632,-3.6598,-3.6566,-3.6544,-3.6888,-3.6888,-3.7096,-3.7098,-3.7099]},{"header":{"parameterUnit":"m.s-1","parameterCategory":1,"la1":30.2991,"la2":30.254,"lo1":-89.0895,"lo2":-89.0444,"dy":0.0017,"dx":0.0017,"nx":28,"ny":28,"refTime":"2024-03-28T09:00:00:Z","depth":0,"parameterNumber":3,"parameterNumberName":"V-component_of_WINDS"},"data":[0,0,0,0,0,0,0,0,0,0,0,0,0,0,0,0,0,0,0,0,0,0,0,0,0,0,0,0,0,0,0,0,0,0,0,0,0,0,0,0,0,0,0,0,0,0,0,0,0,0,0,0,0,0,0,0,0,0,-1.9521,-1.9522,0,-1.9622,-1.9623,-1.9624,-1.965,-1.9649,-1.9649,-1.9648,-1.9748,-1.9751,-1.9754,0,0,0,0,0,0,0,0,0,0,0,0,0,-1.9346,-1.9349,-1.9521,-1.9522,-1.9523,-1.9622,-1.9623,-1.9625,-1.965,-1.9649,-1.9649,-1.9648,-1.9747,-1.975,-1.9754,0,0,0,0,0,0,0,0,0,0,0,0,0,-1.9432,-1.935,-1.9521,-1.9548,-1.9552,-1.9622,-1.9623,-1.9625,-1.965,-1.9649,-1.9648,-1.9648,-1.9745,-1.975,-1.9755,-1.9803,0,0,-1.977,-1.9772,0,0,0,0,0,0,0,0,-1.9427,-1.9438,-1.9543,-1.9546,-1.955,-1.9623,-1.9598,-1.9685,-1.9651,-1.9613,-1.9648,-1.9647,-1.9707,-1.9715,-1.9735,-1.9808,-1.9812,-1.977,-1.9773,-1.9775,-1.9776,0,0,0,0,0,0,0,-1.9421,-1.9434,-1.9561,-1.9544,-1.9549,-1.9554,-1.9565,-1.9615,-1.9663,-1.9616,-1.9618,-1.963,-1.9708,-1.9731,-1.9738,-1.9814,-1.977,-1.9774,-1.9777,-1.9779,-1.993,-1.9932,0,0,0,0,0,0,-1.9411,-1.9429,-1.9558,-1.9564,-1.9485,-1.9558,-1.957,-1.96,-1.9663,-1.9672,-1.9631,-1.9631,-1.9723,-1.9732,-1.9742,-1.9802,-1.9775,-1.978,-1.9782,-1.9929,-1.9931,-1.9932,0,0,0,0,0,0,-1.9407,-1.9422,-1.9554,-1.9497,-1.9514,-1.9562,-1.9595,-1.9603,-1.9625,-1.9674,-1.9683,-1.9645,-1.9723,-1.9735,-1.9788,-1.9806,-1.9782,-1.9786,-1.9928,-1.993,-1.9931,-1.9924,0,0,0,0,0,0,-1.9402,-1.942,-1.944,-1.9497,-1.9517,-1.96,-1.9596,-1.9605,-1.9634,-1.9635,-1.969,-1.9698,-1.9723,-1.9781,-1.9793,-1.9812,-1.979,-1.9927,-1.9929,-1.9931,-1.9922,-1.9925,-1.9927,0,0,0,0,0,-1.9395,-1.9434,-1.9441,-1.9457,-1.9543,-1.9601,-1.9612,-1.9641,-1.9635,-1.9655,-1.9686,-1.9696,-1.9802,-1.9786,-1.98,-1.9821,-1.9926,-1.9928,-1.9931,-1.9921,-1.9924,-1.9927,0,0,0,0,0,0,-1.9376,-1.9441,-1.9451,-1.9509,-1.9549,-1.9605,-1.9631,-1.9643,-1.9685,-1.9684,-1.9717,-1.9729,-1.978,-1.9806,-1.9786,-1.9871,-1.9864,-1.9869,-1.9852,-1.9855,-1.9857,-1.9849,-1.9794,0,0,0,0,0,-1.9379,-1.9421,-1.9476,-1.9521,-1.9541,-1.9582,-1.9608,-1.9628,-1.967,-1.9687,-1.9722,-1.9762,-1.9804,-1.9831,-1.9873,-1.9926,-1.9938,-1.9948,-1.995,-1.9951,-1.9955,-1.9985,-1.9989,-1.994,-1.994,-1.994,0,0,-1.9384,-1.9425,-1.945,-1.9519,-1.9552,-1.9594,-1.9597,-1.9641,-1.9672,-1.9693,-1.9746,-1.9773,-1.9819,-1.9873,-1.9898,-1.9896,-1.9972,-1.9955,-1.9955,-1.9959,-1.9988,-1.9992,-1.9996,-1.9942,-1.9942,-1.9941,0,0,-1.9416,-1.9452,-1.9494,-1.9527,-1.9578,-1.9606,-1.9615,-1.967,-1.9689,-1.9743,-1.9759,-1.9796,-1.9868,-1.99,-1.9926,-1.9969,-1.9979,-1.9982,-1.9993,-2.0021,-2.0025,-2.0029,-2.0043,-2.0048,-1.9986,-1.9986,-1.9986,0,-1.9416,-1.9481,-1.9513,-1.9557,-1.9586,-1.9609,-1.965,-1.9681,-1.9742,-1.9761,-1.9758,-1.9849,-1.9882,-1.9943,-1.9954,-1.9974,-1.9985,-1.9976,-2.0022,-2.0026,-2.003,-2.0044,-2.0049,-1.9986,-1.9986,-1.9986,-1.9986,0,-1.9479,-1.9523,-1.9551,-1.9611,-1.9643,-1.9685,-1.9722,-1.9751,-1.9767,-1.9794,-1.9847,-1.9888,-1.9937,-1.9953,-1.9969,-2.0016,-2.0013,-2.0016,-2.0009,-2.0034,-2.0048,-2.0054,-1.9986,-1.9986,-1.9986,-1.9986,0,0,-1.9501,-1.9578,-1.9587,-1.9615,-1.9672,-1.9707,-1.975,-1.98,-1.9823,-1.9864,-1.99,-1.9961,-1.9963,-1.9993,-2.0012,-2.0037,-2.0068,-2.0036,-2.0038,-2.004,-2.0121,-2.0118,-2.0124,-2.0075,-2.0076,-2.0077,-2.0117,0,-1.9539,-1.9618,-1.9647,-1.9711,-1.9752,-1.9774,-1.9811,-1.985,-1.9876,-1.9913,-1.9942,-1.9984,-1.9985,-2.0002,-2.0028,-2.0058,-2.0084,-2.0056,-2.0107,-2.0108,-2.0094,-2.0131,-2.0129,-2.0164,-2.0122,-2.0123,-2.0124,0,-1.9594,-1.9637,-1.9705,-1.9758,-1.9776,-1.9809,-1.9857,-1.9893,-1.9936,-1.9954,-1.9986,-2.0004,-2.0048,-2.0039,-2.01,-2.008,-2.0103,-2.0121,-2.0123,-2.0128,-2.0117,-2.0137,-2.0177,-2.0182,-2.0133,-2.0132,-2.0132,0,-1.9602,-1.9677,-1.9728,-1.975,-1.9813,-1.9835,-1.9862,-1.9905,-1.9933,-1.9974,-1.9993,-2.0038,-2.0063,-2.0097,-2.0126,-2.0117,-2.0183,-2.0177,-2.0197,-2.0197,-2.021,-2.0208,-2.0253,-2.0225,-2.0225,-2.0225,-2.0225,0,-1.9641,-1.9682,-1.9732,-1.9763,-1.9809,-1.9842,-1.9885,-1.9914,-1.9952,-1.9987,-2.0008,-2.0041,-2.0078,-2.0115,-2.0138,-2.0184,-2.0195,-2.0209,-2.0214,-2.0207,-2.0205,-2.0221,-2.0219,-2.0227,-2.0226,-2.0226,-2.0226,0,-1.9658,-1.9693,-1.975,-1.9804,-1.9819,-1.985,-1.9896,-1.9926,-1.9954,-1.9998,-2.0011,-2.0053,-2.0097,-2.013,-2.0187,-2.0203,-2.0252,-2.0257,-2.0237,-2.024,-2.0258,-2.0255,-2.0314,-2.0323,-2.029,-2.029,-2.0291,0,-1.968,-1.9712,-1.977,-1.9796,-1.9824,-1.9865,-1.9894,-1.9927,-1.9956,-2.0008,-2.0032,-2.0078,-2.0117,-2.0187,-2.0222,-2.0265,-2.0272,-2.029,-2.0279,-2.027,-2.0271,-2.0269,-2.0271,-2.0291,-2.0291,-2.0291,-2.0291,0,-1.9715,-1.9731,-1.9773,-1.9821,-1.9855,-1.9894,-1.9932,-1.9952,-1.9992,-2.0023,-2.007,-2.01,-2.0159,-2.0204,-2.0252,-2.0278,-2.0291,-2.0295,-2.0301,-2.0293,-2.028,-2.0287,-2.024,-2.0293,-2.0293,-2.0293,-2.0292,-2.0292,-1.9735,-1.9764,-1.981,-1.9855,-1.9888,-1.9924,-1.9955,-1.9986,-2.0026,-2.0078,-2.0095,-2.0142,-2.0184,-2.0249,-2.0276,-2.0313,-2.0312,-2.0322,-2.0325,-2.0327,-2.0326,-2.0275,-2.0321,-2.0321,-2.0321,-2.0321,-2.0321,0,-1.9771,-1.9801,-1.9843,-1.9897,-1.9932,-1.9943,-1.9987,-2.0015,-2.0057,-2.0096,-2.0134,-2.0187,-2.0231,-2.0269,-2.0315,-2.0337,-2.0344,-2.0347,-2.0346,-2.0351,-2.0324,-2.0313,-2.0341,-2.0341,-2.0341,-2.0341,-2.0341,-2.0341,-1.9794,-1.9843,-1.9864,-1.993,-1.996,-2.0008,-2.0032,-2.0065,-2.0096,-2.0154,-2.0191,-2.0217,-2.0255,-2.0303,-2.0343,-2.0353,-2.0369,-2.0371,-2.0382,-2.0356,-2.0353,-2.0351,-2.0341,-2.0374,-2.0374,-2.0406,-2.0406,-2.0406]}]]